This is the latest recevied weather packets stored in our database for station/object DC1MPP-9. If no packets are shown the sender has not sent any weather packets the latest 10 day(s).
| Time | Temp. | Humidity | Pressure | Rain* | Wind** | Luminosity | Snow |
|---|---|---|---|---|---|---|---|
| 1788178540 | 27.78° C | 50% | 960 hPa | - | - | - | - |
| 1788178299 | 27.22° C | 52% | 960 hPa | - | - | - | - |
| 1788178058 | 27.22° C | 49% | 960 hPa | - | - | - | - |
| 1788177817 | 27.22° C | 54% | 960 hPa | - | - | - | - |
| 1788177576 | 26.67° C | 51% | 960 hPa | - | - | - | - |
| 1788177335 | 27.22° C | 52% | 960 hPa | - | - | - | - |
| 1788177096 | 27.22° C | 50% | 960 hPa | - | - | - | - |
| 1788176852 | 27.22° C | 51% | 960 hPa | - | - | - | - |
| 1788176611 | 26.67° C | 48% | 960 hPa | - | - | - | - |
| 1788176370 | 26.67° C | 51% | 960 hPa | - | - | - | - |
| 1788176129 | 27.78° C | 50% | 960 hPa | - | - | - | - |
| 1788175888 | 28.33° C | 49% | 960 hPa | - | - | - | - |
| 1788175647 | 28.33° C | 48% | 960 hPa | - | - | - | - |
| 1788175165 | 27.22° C | 47% | 960 hPa | - | - | - | - |
| 1788174924 | 27.22° C | 48% | 960 hPa | - | - | - | - |
| 1788174201 | 27.22° C | 50% | 960 hPa | - | - | - | - |
| 1788173960 | 27.78° C | 54% | 960 hPa | - | - | - | - |
| 1788173719 | 28.33° C | 54% | 960 hPa | - | - | - | - |
| 1788173478 | 28.33° C | 51% | 960 hPa | - | - | - | - |
| 1788172995 | 27.22° C | 56% | 960 hPa | - | - | - | - |
| 1788172754 | 26.67° C | 56% | 960 hPa | - | - | - | - |
| 1788172272 | 26.67° C | 55% | 961 hPa | - | - | - | - |
| 1788172031 | 27.22° C | 57% | 960 hPa | - | - | - | - |
| 1788171790 | 26.67° C | 56% | 961 hPa | - | - | - | - |
| 1788171549 | 27.22° C | 57% | 961 hPa | - | - | - | - |
* Rain since midnight (hover to see other rain measurements)
** Current wind speed in m/s (hover to see current wind gust speed)